Total_Precipitation_Accumulation
0.04 0.10 0.31 0.52 0.93 1.70 1.61 1.01 0.50 0.29 0.28 0.34 0.40 0.43 0.46 0.45 0.64 1.03 0.57 0.35 0.19 0.17 0.21 0.33 0.37 0.30 0.32 0.43 0.46 0.48 0.54 0.55 0.52 0.52 0.55 0.58 0.53 0.48 0.46 0.47 0.44 0.45 0.47 0.40 0.38 0.36 0.34 0.38 0.38
0.06 0.16 0.39 0.59 1.28 1.81 1.33 1.14 0.44 0.25 0.22 0.32 0.39 0.42 0.43 0.42 0.26 0.30 0.38 0.34 0.22 0.19 0.17 0.22 0.29 0.30 0.32 0.42 0.48 0.64 0.65 0.62 0.56 0.57 0.55 0.49 0.46 0.44 0.41 0.43 0.44 0.46 0.42 0.38 0.33 0.30 0.29 0.31 0.31
0.09 0.21 0.40 0.57 0.97 1.09 0.74 0.58 0.27 0.23 0.25 0.29 0.37 0.38 0.40 0.48 0.30 0.29 0.32 0.25 0.21 0.19 0.20 0.24 0.28 0.27 0.38 0.46 0.53 0.59 0.53 0.50 0.50 0.54 0.52 0.50 0.47 0.45 0.43 0.43 0.42 0.43 0.40 0.35 0.29 0.28 0.28 0.29 0.33
0.09 0.19 0.30 0.45 0.49 0.53 0.45 0.32 0.21 0.18 0.22 0.29 0.32 0.34 0.44 0.40 0.26 0.34 0.38 0.36 0.22 0.19 0.23 0.27 0.30 0.32 0.39 0.40 0.43 0.50 0.52 0.47 0.48 0.50 0.52 0.52 0.49 0.50 0.44 0.37 0.36 0.36 0.38 0.34 0.30 0.28 0.29 0.31 0.38
0.10 0.24 0.34 0.36 0.31 0.40 0.38 0.29 0.23 0.16 0.15 0.28 0.38 0.51 0.57 0.42 0.28 0.42 0.44 0.46 0.31 0.24 0.29 0.31 0.38 0.41 0.42 0.39 0.41 0.43 0.46 0.48 0.51 0.50 0.48 0.48 0.45 0.46 0.43 0.35 0.30 0.31 0.34 0.32 0.30 0.29 0.34 0.38 0.44
0.12 0.23 0.26 0.24 0.24 0.31 0.29 0.21 0.19 0.18 0.22 0.27 0.39 0.63 0.72 0.56 0.39 0.41 0.50 0.44 0.41 0.40 0.40 0.44 0.49 0.48 0.48 0.45 0.44 0.43 0.43 0.43 0.41 0.41 0.44 0.41 0.38 0.42 0.45 0.42 0.33 0.31 0.32 0.30 0.29 0.30 0.36 0.44 0.49
0.11 0.17 0.15 0.14 0.17 0.24 0.24 0.18 0.17 0.15 0.18 0.29 0.36 0.68 0.87 0.91 0.66 0.55 0.64 0.70 0.76 0.61 0.49 0.51 0.57 0.58 0.56 0.60 0.54 0.49 0.45 0.44 0.42 0.42 0.43 0.41 0.38 0.37 0.40 0.46 0.42 0.36 0.39 0.36 0.35 0.34 0.37 0.45 0.53
0.04 0.07 0.11 0.12 0.09 0.18 0.20 0.18 0.15 0.16 0.18 0.26 0.34 0.54 0.86 0.81 0.57 0.64 0.95 1.02 1.18 1.03 0.82 0.75 0.66 0.61 0.59 0.59 0.59 0.57 0.52 0.46 0.45 0.45 0.41 0.44 0.43 0.42 0.46 0.44 0.46 0.46 0.49 0.53 0.49 0.47 0.47 0.49 0.51
0.03 0.04 0.08 0.08 0.06 0.10 0.12 0.14 0.14 0.13 0.17 0.34 0.46 0.55 0.70 0.61 0.56 0.67 1.21 1.28 1.36 1.30 1.12 0.91 0.74 0.69 0.71 0.63 0.60 0.66 0.63 0.58 0.57 0.59 0.55 0.63 0.75 0.69 0.75 0.64 0.71 0.69 0.71 0.76 0.75 0.76 0.77 0.72 0.62
0.02 0.02 0.03 0.03 0.04 0.05 0.09 0.14 0.13 0.15 0.30 0.66 0.88 0.85 0.81 0.71 0.77 0.96 1.29 1.20 1.34 1.40 1.19 1.05 0.88 0.76 0.70 0.67 0.77 0.98 0.81 0.80 0.88 0.98 0.98 1.16 1.35 1.32 0.87 0.90 1.15 1.21 1.27 1.26 1.26 1.27 1.08 0.92 0.86
0.02 0.02 0.02 0.02 0.02 0.03 0.06 0.11 0.14 0.17 0.53 0.96 1.26 1.06 0.94 1.00 1.06 1.29 1.61 1.66 1.56 1.66 1.46 1.26 1.08 0.91 0.84 0.98 0.90 1.02 1.14 1.22 1.25 1.27 1.27 1.44 1.36 1.16 0.99 1.11 1.37 1.61 1.67 1.56 1.74 1.79 1.45 1.51 1.75
0.02 0.02 0.01 0.01 0.01 0.03 0.06 0.08 0.14 0.24 0.49 0.68 0.86 1.01 1.09 1.23 1.48 1.69 1.73 1.90 1.86 1.83 1.71 1.67 1.44 1.28 1.35 1.29 1.03 0.97 1.02 1.12 1.28 1.52 1.48 1.56 1.75 1.64 1.58 1.63 1.67 1.80 2.00 2.24 2.19 2.35 2.20 2.12 1.99
0.01 0.02 0.01 0.01 0.01 0.03 0.05 0.07 0.17 0.32 0.43 0.53 0.84 1.18 1.42 1.44 1.73 1.99 2.05 2.29 2.13 2.01 1.95 1.94 1.90 1.73 1.80 1.62 1.42 1.23 1.35 1.35 1.41 1.55 1.68 1.63 1.85 2.00 2.00 1.95 1.93 1.83 1.91 2.08 2.27 2.31 2.66 2.77 2.40
0.00 0.01 0.01 0.01 0.02 0.04 0.07 0.11 0.22 0.36 0.52 0.69 0.92 1.20 1.50 1.75 1.95 2.03 2.36 2.58 2.55 2.38 2.39 2.21 2.17 2.16 2.14 2.06 2.02 1.94 1.72 1.74 1.67 1.64 1.64 1.67 1.89 2.12 2.23 2.10 2.07 1.94 1.90 2.05 2.24 2.41 2.89 2.92 2.73
0.00 0.02 0.03 0.03 0.05 0.07 0.10 0.26 0.42 0.53 0.61 0.73 0.93 1.10 1.43 1.93 2.20 2.21 2.42 2.57 2.53 2.82 2.83 2.82 2.78 2.91 2.84 2.66 2.51 2.33 2.17 2.00 1.97 2.02 2.02 1.92 1.94 2.13 2.14 1.98 1.88 1.92 2.06 2.23 2.26 2.41 2.72 2.49 2.46
0.02 0.08 0.11 0.11 0.09 0.10 0.15 0.46 0.57 0.65 0.65 0.84 1.03 1.19 1.50 1.78 2.12 2.26 2.49 2.67 2.76 3.09 3.21 3.35 3.37 3.37 3.22 3.18 3.09 2.84 2.62 2.45 2.28 2.21 2.26 2.09 2.01 2.03 2.18 1.99 1.83 2.13 2.19 2.28 2.50 2.64 2.66 2.61 2.61
0.05 0.06 0.08 0.11 0.09 0.08 0.15 0.40 0.51 0.65 0.87 1.05 1.21 1.32 1.43 1.69 2.00 2.35 2.62 2.96 3.26 3.55 3.78 3.93 3.94 3.80 3.54 3.55 3.51 3.35 3.17 2.83 2.47 2.31 2.23 2.08 2.01 2.10 2.35 2.31 2.39 2.47 2.50 2.51 2.39 2.68 2.71 2.61 2.60
0.03 0.06 0.07 0.11 0.10 0.09 0.20 0.44 0.55 0.68 0.93 1.02 1.28 1.43 1.53 1.61 2.06 2.49 2.69 3.12 3.62 4.09 4.46 4.26 4.14 4.30 4.17 4.00 3.82 3.54 3.10 2.70 2.55 2.47 2.29 2.15 2.13 2.21 2.55 2.39 2.39 2.49 2.62 2.65 2.57 2.58 2.60 2.35 2.32
0.04 0.06 0.09 0.12 0.10 0.12 0.24 0.51 0.76 0.85 1.13 1.11 1.14 1.30 1.45 1.58 1.88 2.29 2.59 3.16 3.77 4.14 4.52 4.66 4.64 4.51 4.26 3.83 3.49 3.24 3.02 2.87 2.62 2.44 2.36 2.22 2.10 2.20 2.52 2.40 2.53 2.51 2.52 2.53 2.54 2.55 2.40 2.03 2.23
0.04 0.07 0.10 0.14 0.13 0.17 0.33 0.55 0.83 0.86 0.96 1.03 0.95 0.99 1.18 1.54 1.79 2.32 2.61 2.82 3.29 3.80 4.26 4.54 4.68 4.55 4.15 3.69 3.45 3.30 3.23 2.88 2.58 2.53 2.54 2.36 2.37 2.36 2.36 2.45 2.42 2.46 2.55 2.47 2.41 2.46 2.28 1.91 2.05
0.06 0.07 0.10 0.10 0.13 0.24 0.36 0.75 1.01 0.92 0.89 0.93 0.93 0.99 1.16 1.63 2.06 2.33 2.52 2.68 2.95 3.34 3.65 3.77 3.91 3.87 3.69 3.67 3.65 3.55 3.48 3.03 2.85 2.82 2.78 2.63 2.58 2.52 2.49 2.44 2.34 2.27 2.15 2.13 2.19 2.21 2.19 2.02 1.93
0.08 0.07 0.06 0.07 0.14 0.34 0.38 0.84 1.27 1.11 0.97 1.04 1.11 1.07 1.35 1.68 1.71 1.86 2.17 2.49 2.65 2.88 3.23 3.46 3.51 3.45 3.34 3.41 3.41 3.26 3.04 2.85 2.93 3.16 3.10 2.83 2.58 2.38 2.14 2.00 2.05 2.04 1.94 1.90 1.70 1.75 1.87 1.81 1.67
0.06 0.06 0.06 0.09 0.16 0.32 0.41 0.61 1.12 1.15 1.20 1.12 1.15 1.27 1.49 1.52 1.46 1.56 1.77 2.08 2.19 2.50 2.78 3.03 3.29 3.36 3.29 3.31 3.22 3.19 3.06 3.04 3.05 2.97 2.87 2.63 2.39 2.07 1.77 1.67 1.75 1.76 1.69 1.60 1.52 1.61 1.54 1.47 1.45
0.05 0.06 0.12 0.19 0.31 0.65 0.52 0.53 0.96 1.12 1.01 0.95 1.04 1.08 1.29 1.30 1.30 1.48 1.64 1.87 1.98 2.14 2.25 2.39 2.59 2.86 3.00 3.03 3.00 2.99 2.91 2.86 2.77 2.59 2.39 2.19 2.01 1.74 1.49 1.38 1.49 1.59 1.62 1.58 1.53 1.57 1.45 1.44 1.53
0.06 0.09 0.39 0.74 0.98 1.03 0.56 0.60 1.05 0.92 0.73 0.75 0.92 0.96 1.03 1.02 1.01 1.22 1.35 1.46 1.59 1.71 1.80 1.92 2.12 2.45 2.57 2.54 2.53 2.64 2.67 2.65 2.55 2.45 2.24 2.01 1.76 1.46 1.38 1.39 1.46 1.51 1.58 1.49 1.51 1.51 1.53 1.62 1.65
0.08 0.09 0.34 0.62 0.75 0.82 0.67 1.02 1.46 0.97 0.75 0.80 0.83 0.81 0.79 0.79 0.76 0.91 1.12 1.32 1.38 1.42 1.54 1.67 1.90 2.11 2.18 2.09 2.21 2.41 2.47 2.53 2.41 2.40 2.17 1.88 1.66 1.53 1.55 1.52 1.42 1.39 1.45 1.38 1.57 1.50 1.53 1.65 1.65
0.09 0.08 0.14 0.28 0.37 0.60 0.83 1.13 1.18 0.73 0.64 0.73 0.75 0.75 0.78 0.78 0.74 0.80 0.87 1.02 1.07 1.13 1.22 1.33 1.68 1.91 1.99 1.99 2.13 2.25 2.32 2.27 2.16 2.06 1.91 1.71 1.69 1.63 1.73 1.69 1.59 1.48 1.51 1.61 1.83 1.81 1.81 1.94 1.88
0.10 0.11 0.16 0.22 0.35 0.58 0.80 1.10 1.25 0.88 0.71 0.53 0.49 0.53 0.49 0.50 0.53 0.59 0.59 0.68 0.81 0.99 1.17 1.28 1.40 1.62 1.82 1.86 1.90 1.94 2.07 2.00 1.90 1.86 1.70 1.54 1.46 1.53 1.69 1.79 1.74 1.65 1.66 1.80 1.95 1.97 2.09 2.19 2.17
0.13 0.11 0.13 0.17 0.21 0.40 0.79 1.02 0.83 0.69 0.58 0.54 0.50 0.54 0.47 0.40 0.41 0.46 0.55 0.67 0.79 0.89 1.04 1.21 1.27 1.41 1.56 1.64 1.75 1.76 1.74 1.80 1.82 1.70 1.53 1.46 1.46 1.50 1.57 1.70 1.77 1.72 1.72 1.82 1.88 1.87 2.09 2.19 2.19
0.14 0.11 0.13 0.17 0.17 0.25 0.44 0.66 0.53 0.59 0.60 0.52 0.54 0.60 0.60 0.55 0.49 0.50 0.63 0.74 0.78 0.88 0.97 1.05 1.11 1.24 1.40 1.55 1.74 1.83 1.83 1.85 1.80 1.62 1.48 1.47 1.50 1.56 1.59 1.68 1.70 1.62 1.63 1.77 1.80 1.86 2.04 2.12 2.04